Hourly Data Report for October 10, 2014

All times are specified in Local Standard Time (LST). Add 1 hour to adjust for Daylight Saving Time where and when it is observed.

FREDERICTON
NEW BRUNSWICK

45°52'08.000" N
66°32'14.000" W
20.70 m
8101505
71700
YFC

Download Data

Hourly Data (October 2014)
Hourly Data Report for October 10, 2014
Temp Definition
°C
Dew Point Temp Definition
°C
Rel Hum Definition
%
Wind Dir Definition
10's deg

Wind Spd Definition
km/h
Visibility Definition
km
Stn Press Definition
kPa
Hmdx Definition


Wind Chill Definition


Weather Definition


TIME
00:00 Legend Double Dagger 4.1 2.4 88 20 9 16.1 100.71     LegendNANA
01:00 Legend Double Dagger 2.9 1.4 90 18 9 16.1 100.71     LegendNANA
02:00 Legend Double Dagger 2.6 1.5 93 22 9 16.1 100.76     LegendNANA
03:00 Legend Double Dagger 5.4 2.6 82 23 18 16.1 100.75     LegendNANA
04:00 Legend Double Dagger 5.9 2.0 76 23 22 16.1 100.77     LegendNANA
05:00 Legend Double Dagger 5.1 1.6 78 20 13 16.1 100.83     LegendNANA
06:00 Legend Double Dagger 4.9 1.6 79 21 15 16.1 100.87     LegendNANA
07:00 Legend Double Dagger 4.9 1.9 81 21 18 16.1 100.89     LegendNANA
08:00 Legend Double Dagger 6.9 2.6 74 22 22 16.1 100.93     LegendNANA
09:00 Legend Double Dagger 9.2 3.1 66 23 21 16.1 100.99     LegendNANA
10:00 Legend Double Dagger 11.2 3.2 58 26 15 16.1 100.98     LegendNANA
11:00 Legend Double Dagger 12.6 3.3 53 25 22 16.1 100.96     LegendNANA
12:00 Legend Double Dagger 13.7 3.9 51 22 24 16.1 100.98     LegendNANA
13:00 Legend Double Dagger 14.4 3.8 49 24 28 16.1 100.96     LegendNANA
14:00 Legend Double Dagger 15.2 4.5 49 21 30 16.1 100.94     LegendNANA
15:00 Legend Double Dagger 14.5 4.4 50 23 18 16.1 100.95     LegendNANA
16:00 Legend Double Dagger 14.4 3.9 49 25 15 16.1 100.98     LegendNANA
17:00 Legend Double Dagger 14.0 4.9 54 24 9 16.1 101.06     LegendNANA
18:00 Legend Double Dagger 12.2 5.9 65 23 8 16.1 101.14     LegendNANA
19:00 Legend Double Dagger 11.7 5.4 65 24 13 16.1 101.21     LegendNANA
20:00 Legend Double Dagger 11.5 5.2 65 26 9 16.1 101.28     LegendNANA
21:00 Legend Double Dagger 10.2 5.2 71 26 9 16.1 101.33     LegendNANA
22:00 Legend Double Dagger 8.9 4.2 72 26 9 16.1 101.39     LegendNANA
23:00 Legend Double Dagger 6.0 3.7 85 23 9 16.1 101.43     LegendNANA

Notes on Data Quality.

Legend

  • E = Estimated
  • M = Missing
  • NA = Not Available
  • ‡ = Partner data that is not subject to review by the National Climate Archives
Date modified: